Regional Weather Roundup
Issued by NWS Goodland, KS

Home | Current Version | Previous Version | Graphics & Text | Print | Product List | Glossary On
Versions: 1 2 3 4 5 6 7 8 9 10 11 12 13 14 15 16 17 18 19 20 21 22 23 24 25 26 27 28 29 30 31 32 33 34 35 36 37 38 39 40 41 42 43 44 45 46 47 48 49 50
000
ASUS43 KGLD 041259
RWRGLD

GOODLAND FORECAST AREA HOURLY WEATHER ROUNDUP
NATIONAL WEATHER SERVICE GOODLAND KS
600 AM MST SUN DEC 04 2016

...OFFICIAL OBSERVATIONS...

CITY           SKY/WX    TMP DP  RH WIND       PRES   REMARKS
GOODLAND KS    CLEAR     20  12  71 W13       30.03R WCI   7
HILL CITY KS   CLEAR     23  19  85 W7        30.03R
IMPERIAL NEB   CLEAR     24  14  65 W12       30.01S WCI  13
MCCOOK NEB     CLEAR     23  16  74 W12       30.01R WCI  12
AKRON CO       CLOUDY    19   9  65 W10       30.01S WCI   7
BURLINGTON CO  CLEAR     16   8  71 W10       30.04R WCI   4
LIMON CO       CLOUDY     4   0  83 NW3       30.03S
$$

...UNOFFICIAL OBSERVATIONS...

CITY           SKY/WX    TMP DP  RH WIND       PRES   REMARKS
COLBY KS       CLEAR     25  18  74 W12       30.04R WCI  14
LENORA KS        N/A     27  32 100 MISG        N/A
NORTON KS      CLEAR     25  18  74 SW7       30.00R
SHARON SPRINGS   N/A     20  14  77 W8          N/A
TRENTON NEB      N/A     25  32 100 NW9         N/A
YUMA CO        FAIR      18  10  73 W7        30.01S
$$




USA.gov is the U.S. government's official web portal to all federal, state and local government web resources and services.